Flag for United Arab Emirates Weather past 2 weeks in Sharjah, Sharjah, United Arab Emirates

Now
100 °F

Sunny.


Feels Like: 98 °F
Forecast: 88 / 107 °F
Wind: 10 mph from Northwest

Location: Sharjah International Airport

Current Time: May 30, 2015 at 6:38:16 PM

Latest Report: May 30, 2015 at 6:00 PM


Visibility: 10 mi

Pressure: 29.68 "Hg

Humidity: 21%

Dew point: 54 °F

Location of SharjahLocation

Historic Weather in Sharjah — Graph

°F

Sharjah temperature yesterday

Maximum temperature yesterday: 104 °F (at 1:00 PM)
Minimum temperature yesterday: 75 °F (at 6:00 AM)
Average temperature yesterday: 90 °F

Past Weeks' High & Low Weather Summary

 TemperatureHumidityPressure
High111 °F (May 30, 1:00 PM)79% (May 20, 3:00 AM)29.77 "Hg (May 20, 3:00 AM)
Low73 °F (May 22, 6:00 AM)7% (May 30, 1:00 PM)29.59 "Hg (May 28, 5:00 PM)
Average92 °F37%29.68 "Hg
* Reported May 15 5:00 PM — May 30 5:00 PM, Sharjah, Weather by CustomWeather, © 2015

Note: Actual official high and low records may vary slightly from our data, if they occured in-between our weather recording intervals... More about our weather records

Advertising

Sharjah weather history for previous 24 hours

 ConditionsComfort  
Time TempWeatherWind HumidityBarometerVisibility
5:00 PM
Sat, May 30
102 °FSunny.13 mph23%29.68 "Hg10 mi
4:00 PM106 °FSunny.14 mph19%29.68 "Hg10 mi
3:00 PM108 °FSunny.17 mph15%29.68 "Hg10 mi
2:00 PM109 °FSunny.9 mph12%29.71 "Hg10 mi
1:00 PM111 °FPassing clouds.5 mph7%29.71 "HgN/A
12:00 PM109 °FSunny.8 mph8%29.74 "Hg10 mi
11:00 AM108 °FSunny.12 mph10%29.74 "Hg10 mi
10:00 AM104 °FSunny.12 mph17%29.77 "Hg10 mi
9:00 AM99 °FSunny.12 mph21%29.77 "Hg10 mi
8:00 AM95 °FSunny.9 mph20%29.74 "Hg10 mi
7:00 AM84 °FSunny.8 mph29%29.71 "Hg10 mi
6:00 AM79 °FSunny.8 mph34%29.71 "Hg10 mi
5:00 AM81 °FClear.6 mph37%29.68 "Hg10 mi
3:00 AM79 °FClear.3 mph48%29.68 "Hg10 mi
2:00 AM79 °FClear.3 mph48%29.68 "Hg10 mi
1:00 AM82 °FClear.7 mph48%29.68 "Hg10 mi
12:00 AM82 °FClear.6 mph51%29.68 "Hg10 mi
11:00 PM
Fri, May 29
84 °FClear.1 mph55%29.68 "Hg10 mi
10:00 PM86 °FClear.2 mph55%29.68 "Hg10 mi
9:00 PM88 °FClear.3 mph52%29.68 "Hg10 mi
8:00 PM90 °FClear.3 mph41%29.65 "Hg10 mi
7:00 PM91 °FSunny.6 mph41%29.62 "Hg10 mi
6:00 PM95 °FSunny.10 mph36%29.62 "Hg10 mi
Weather by CustomWeather, © 2015

See weather overviewHow to use our weather pages